FW3640 Weather Reports


time (UTC)temp
F
wind
direction
speed
knots
gust
knots
rain 1hr
in
rain 24hr
in
rain mn
in
humidity
%
barometer
mb
20260510190616 84 23 0.9 1.7 0.00 0.00 0.00 29 1015.4
20260510185616 82 0.0 0.0 0.00 0.00 0.00 30 1015.4
20260510184616 82 68 0.9 2.6 0.00 0.00 0.00 33 1015.5
20260510183616 83 0.0 0.0 0.00 0.00 0.00 38 1015.7
20260510182616 82 90 0.9 2.6 0.00 0.00 0.00 30 1015.8
20260510181616 81 0.0 0.0 0.00 0.00 0.00 36 1015.9
20260510180616 80 315 0.9 2.6 0.00 0.00 0.00 32 1015.9
20260510175615 82 0.0 0.9 0.00 0.00 0.00 35 1015.9
20260510174615 83 315 0.9 3.5 0.00 0.00 0.00 34 1015.9
20260510173615 82 113 0.9 4.3 0.00 0.00 0.00 34 1015.9
20260510172616 82 0.0 0.9 0.00 0.00 0.00 39 1016.0
20260510171615 81 0.0 0.0 0.00 0.00 0.00 35 1016.1
20260510170615 81 293 1.7 3.5 0.00 0.00 0.00 33 1016.2
20260510165615 81 0.0 1.7 0.00 0.00 0.00 37 1016.3
20260510164615 81 315 0.9 1.7 0.00 0.00 0.00 33 1016.2
20260510163615 80 0.0 0.9 0.00 0.00 0.00 40 1016.2
20260510162635 79 338 0.9 2.6 0.00 0.00 0.00 37 1016.4
20260510161617 79 0.0 0.0 0.00 0.00 0.00 37 1016.6
20260510160637 79 315 0.9 3.5 0.00 0.00 0.00 43 1016.5
20260510155617 79 315 0.9 1.7 0.00 0.00 0.00 44 1016.5
20260510154617 78 0.0 1.7 0.00 0.00 0.00 43 1016.7
20260510153617 78 0.0 0.0 0.00 0.00 0.00 48 1016.8
20260510152617 77 0.0 0.0 0.00 0.00 0.00 51 1016.8
20260510151617 78 0.0 1.7 0.00 0.00 0.00 49 1016.8
20260510150617 77 0.0 0.9 0.00 0.00 0.00 50 1016.7
20260510145637 75 293 0.9 2.6 0.00 0.00 0.00 51 1016.7
20260510144617 76 0.0 0.9 0.00 0.00 0.00 61 1016.7
20260510143637 74 315 0.9 2.6 0.00 0.00 0.00 53 1016.6
20260510142617 74 293 1.7 3.5 0.00 0.00 0.00 55 1016.7
20260510141617 73 315 1.7 3.5 0.00 0.00 0.00 58 1016.7
20260510140617 73 293 0.9 2.6 0.00 0.00 0.00 61 1016.8
20260510135617 72 0.0 1.7 0.00 0.00 0.00 65 1016.8
20260510134617 71 0.0 0.0 0.00 0.00 0.00 68 1016.8
20260510133617 70 0.0 0.9 0.00 0.00 0.00 69 1016.6
20260510132617 69 0.0 0.0 0.00 0.00 0.00 72 1016.7
20260510131617 69 0.0 0.0 0.00 0.00 0.00 74 1016.6
20260510130617 68 0.0 0.9 0.00 0.00 0.00 75 1016.5
20260510125617 67 0.0 0.9 0.00 0.00 0.00 77 1016.3
20260510124617 66 293 0.9 1.7 0.00 0.00 0.00 78 1016.2
20260510123637 65 0.0 0.9 0.00 0.00 0.00 81 1016.3
20260510122617 64 0.0 0.0 0.00 0.00 0.00 83 1016.2
20260510121616 63 0.0 0.0 0.00 0.00 0.00 84 1016.1
20260510120617 63 0.0 0.0 0.00 0.00 0.00 85 1016.0
20260510115617 62 203 0.9 1.7 0.00 0.00 0.00 85 1015.9
20260510114617 62 0.0 0.0 0.00 0.00 0.00 86 1015.8
20260510113636 61 0.0 0.0 0.00 0.00 0.00 85 1015.7
20260510112616 60 0.0 0.0 0.00 0.00 0.00 84 1015.4
20260510111617 60 0.0 0.0 0.00 0.00 0.00 84 1015.2
20260510110636 60 0.0 0.0 0.00 0.00 0.00 83 1015.0
20260510105616 60 0.0 0.0 0.00 0.00 0.00 83 1015.0
20260510104617 60 0.0 0.0 0.00 0.00 0.00 83 1014.7
20260510103616 60 0.0 0.0 0.00 0.00 0.00 84 1014.6
20260510102617 60 0.0 0.0 0.00 0.00 0.00 84 1014.6
20260510101616 60 0.0 0.0 0.00 0.00 0.00 84 1014.4
20260510100616 60 0.0 0.0 0.00 0.00 0.00 83 1014.3
20260510095616 60 0.0 0.0 0.00 0.00 0.00 83 1014.1
20260510094616 60 0.0 0.0 0.00 0.00 0.00 83 1014.2
20260510093636 60 0.0 0.0 0.00 0.00 0.00 83 1014.0
20260510092616 60 0.0 0.0 0.00 0.00 0.00 83 1013.8
20260510091616 60 0.0 0.0 0.00 0.00 0.00 83 1013.7
20260510090616 60 0.0 0.0 0.00 0.00 0.00 83 1013.5
20260510085622 60 0.0 0.0 0.00 0.00 0.00 83 1013.4
20260510084616 60 0.0 0.0 0.00 0.00 0.00 83 1013.4
20260510083616 60 0.0 0.0 0.00 0.00 0.00 84 1013.3
20260510082636 60 0.0 0.0 0.00 0.00 0.00 83 1013.4
20260510081616 60 0.0 0.0 0.00 0.00 0.00 83 1013.3
20260510080616 60 0.0 0.0 0.00 0.00 0.00 83 1013.2
20260510075616 60 0.0 0.0 0.00 0.00 0.00 83 1013.2
20260510074616 60 0.0 0.0 0.00 0.00 0.00 83 1013.2
20260510073616 60 0.0 0.0 0.00 0.00 0.00 83 1013.0
20260510072616 60 0.0 0.0 0.00 0.00 0.00 82 1013.1
20260510071616 60 0.0 0.0 0.00 0.00 0.00 82 1012.9
20260510070616 60 0.0 0.0 0.00 0.00 0.00 82 1012.9
20260510065616 60 0.0 0.0 0.00 0.00 0.00 81 1013.0
20260510064616 60 0.0 0.0 0.00 0.00 0.00 82 1013.0
20260510063656 60 0.0 0.0 0.00 0.00 0.00 82 1013.1
20260510062616 60 0.0 0.0 0.00 0.00 0.00 82 1013.0
20260510061616 60 0.0 0.0 0.00 0.00 0.00 82 1013.0
20260510060615 60 0.0 0.0 0.00 0.00 0.00 82 1013.1
20260510055616 60 0.0 0.0 0.00 0.00 0.00 82 1013.1
20260510054616 60 0.0 0.0 0.00 0.00 0.00 82 1013.3
20260510053615 60 0.0 0.0 0.00 0.00 0.00 81 1013.3
20260510052616 60 0.0 0.0 0.00 0.00 0.00 81 1013.3
20260510051615 60 0.0 0.0 0.00 0.00 0.00 81 1013.4
20260510050616 60 0.0 0.0 0.00 0.00 0.00 80 1013.5
20260510045615 60 0.0 0.0 0.00 0.00 0.00 80 1013.5
20260510044615 60 0.0 0.0 0.00 0.00 0.00 80 1013.7
20260510043615 60 0.0 0.0 0.00 0.00 0.00 79 1013.6
20260510042615 60 0.0 0.0 0.00 0.00 0.00 79 1013.6
20260510041615 61 0.0 0.0 0.00 0.00 0.00 78 1013.5
20260510040615 61 0.0 0.0 0.00 0.00 0.00 78 1013.6
20260510035617 61 0.0 0.0 0.00 0.00 0.00 78 1013.5
20260510034616 61 0.0 0.0 0.00 0.00 0.00 78 1013.3
20260510033657 61 0.0 0.0 0.00 0.00 0.00 78 1013.4
20260510032637 61 0.0 0.0 0.00 0.00 0.00 77 1013.4
20260510031637 62 0.0 0.0 0.00 0.00 0.00 78 1013.3
20260510030616 62 0.0 0.0 0.00 0.00 0.00 77 1013.2
20260510025637 62 0.0 0.0 0.00 0.00 0.00 77 1013.2
20260510024616 62 0.0 0.0 0.00 0.00 0.00 77 1013.2
20260510023616 63 0.0 0.0 0.00 0.00 0.00 76 1013.1
20260510022616 63 0.0 0.0 0.00 0.00 0.00 76 1013.0
20260510021616 63 0.0 0.0 0.00 0.00 0.00 75 1013.0
20260510020616 64 0.0 0.0 0.00 0.00 0.00 75 1012.9
20260510015616 64 0.0 0.0 0.00 0.00 0.00 75 1012.8
20260510014616 64 0.0 0.0 0.00 0.00 0.00 75 1012.9
20260510013616 65 0.0 0.0 0.00 0.00 0.00 74 1012.6
20260510012616 65 0.0 0.0 0.00 0.00 0.00 74 1012.2
20260510011616 66 0.0 0.0 0.00 0.00 0.00 74 1012.1
20260510010616 66 0.0 0.0 0.00 0.00 0.00 73 1012.0
20260510005616 67 0.0 0.0 0.00 0.00 0.00 72 1011.9
20260510004616 67 0.0 0.0 0.00 0.00 0.00 71 1011.8
20260510003616 68 0.0 0.0 0.00 0.00 0.00 71 1011.9
20260510002616 69 0.0 0.0 0.00 0.00 0.00 70 1011.8
20260510001616 69 0.0 0.0 0.00 0.00 0.00 68 1011.9
20260510000616 70 0.0 0.0 0.00 0.00 0.00 67 1011.9
20260509235616 71 0.0 0.0 0.00 0.00 0.00 66 1011.8
20260509234616 71 0.0 0.0 0.00 0.00 0.00 65 1011.7
20260509233616 72 0.0 0.0 0.00 0.00 0.00 65 1011.6
20260509232636 72 0.0 0.0 0.00 0.00 0.00 65 1011.3
20260509231616 72 0.0 0.0 0.00 0.00 0.00 64 1011.2
20260509230616 72 0.0 0.0 0.00 0.00 0.00 65 1011.3
20260509225616 72 0.0 0.0 0.00 0.00 0.00 63 1011.2
20260509224616 73 0.0 0.0 0.00 0.00 0.00 62 1011.1
20260509223616 72 0.0 0.0 0.00 0.00 0.00 64 1011.1
20260509222616 72 0.0 0.0 0.00 0.00 0.00 63 1011.2
20260509221616 72 0.0 0.0 0.00 0.00 0.00 64 1011.1
20260509220616 72 0.0 0.0 0.00 0.00 0.00 63 1011.4
20260509215616 73 0.0 0.0 0.00 0.00 0.00 63 1011.3
20260509214616 73 0.0 0.0 0.00 0.00 0.00 61 1011.2
20260509213615 74 0.0 0.9 0.00 0.00 0.00 61 1011.1
20260509212616 74 0.0 0.9 0.00 0.00 0.00 60 1011.2
20260509211635 73 0.0 0.9 0.00 0.00 0.00 61 1011.1
20260509210615 73 0.0 0.9 0.00 0.00 0.00 61 1011.0
20260509205615 73 0.0 1.7 0.00 0.00 0.00 60 1011.1
20260509204615 73 0.0 0.0 0.00 0.00 0.00 61 1010.9
20260509203615 73 293 0.9 2.6 0.00 0.00 0.00 60 1011.1
20260509202615 72 0.0 0.0 0.00 0.00 0.00 63 1011.0
20260509201615 72 0.0 0.0 0.00 0.00 0.00 62 1011.2
20260509200635 71 0.0 0.0 0.00 0.00 0.00 62 1011.3
20260509195615 72 0.0 0.0 0.00 0.00 0.00 63 1011.4
20260509194617 72 0.0 0.0 0.00 0.00 0.00 61 1011.4
20260509193617 72 293 0.9 1.7 0.00 0.00 0.00 60 1011.4
20260509192617 71 0.0 0.0 0.00 0.00 0.00 63 1011.7
20260509191718 71 0.0 0.0 0.00 0.00 0.00 61 1011.9